Location: Newark
(42.0667°N, 9.0833°E)
Time: 15:20:54
(UTC+00:00)

Envisat - Visible Passes

Search period start: 06 December 2019 00:00
Search period end: 16 December 2019 00:00
Orbit: 764 x 766 km, 98.1° (Epoch: 06 December)

Date Brightness Start Highest point End Pass type
(mag) Time Alt. Az. Time Alt. Az. Time Alt. Az.
06 Dec 5.0 05:31:17 10° NNE 05:35:49 32° E 05:40:19 10° SSE visible
06 Dec 3.3 16:46:05 10° SE 16:50:52 44° ENE 16:55:41 10° N visible
06 Dec 5.4 18:26:08 10° SW 18:30:04 22° W 18:34:01 10° NW visible
07 Dec 6.1 04:55:58 10° ENE 04:58:42 14° E 05:01:26 10° ESE visible
07 Dec 3.9 17:48:09 10° S 17:53:03 49° W 17:58:00 10° NNW visible
08 Dec 3.9 05:56:25 10° NNE 06:01:26 56° E 06:06:23 10° S visible
08 Dec 2.9 17:11:13 10° SSE 17:16:16 76° ENE 17:21:21 10° N visible
08 Dec 6.1 18:53:41 10° WSW 18:55:50 13° W 18:58:00 10° WNW visible
09 Dec 5.4 05:20:16 10° NE 05:24:28 25° E 05:28:37 10° SSE visible
09 Dec 3.6 16:35:06 10° SE 16:39:39 35° ENE 16:44:15 10° N visible
09 Dec 5.0 18:14:22 10° SSW 18:18:42 28° W 18:23:04 10° NW visible
10 Dec 6.3 04:45:51 10° ENE 04:47:17 11° E 04:48:43 10° ESE visible
10 Dec 3.5 17:36:44 10° S 17:41:45 62° W 17:46:48 10° NNW visible
11 Dec 4.4 05:45:15 10° NNE 05:50:06 44° E 05:54:56 10° S visible
11 Dec 3.0 17:00:02 10° SSE 17:05:01 60° ENE 17:10:01 10° N visible
11 Dec 5.8 18:41:19 10° SW 18:44:25 16° W 18:47:34 10° NW visible
12 Dec 5.8 05:09:22 10° NE 05:13:05 20° E 05:16:47 10° SE visible
12 Dec 3.8 16:24:11 10° SE 16:28:28 28° ENE 16:32:46 10° N visible
12 Dec 4.6 18:02:43 10° SSW 18:07:20 35° W 18:12:00 10° NNW visible
13 Dec 3.3 06:10:33 10° NNE 06:15:40 78° ESE 06:20:44 10° S visible
13 Dec 3.1 17:25:23 10° S 17:30:28 79° WSW 17:35:35 10° NNW visible
14 Dec 4.8 05:34:08 10° NNE 05:38:46 35° E 05:43:23 10° SSE visible
14 Dec 3.2 16:48:56 10° SE 16:53:46 47° ENE 16:58:39 10° N visible
14 Dec 5.5 18:29:18 10° SW 18:33:02 21° W 18:36:47 10° NW visible
15 Dec 6.0 04:58:38 10° NE 05:01:41 16° E 05:04:44 10° SE visible
15 Dec 4.1 17:51:11 10° S 17:56:00 45° W 18:00:53 10° NNW visible
